FENGYUN 1C DEB, 33741

Orbit data source: Space-Track

FENGYUN 1C DEB, 33741 is space debris in SSO originally from a launch on Mon, 10 May 1999 UTC launched from the Taiyaun Space Center, China (TSC). Fengyun 1C debris stems from the Chinese weather satellite Fengyun-1C, which was intentionally destroyed by a Chinese anti-satellite missile in 2007. This event dramatically increased the amount of space debris, with thousands of trackable fragments posing hazards to satellites and human spaceflight. The Fengyun 1C debris cloud has become a focal point in discussions about space sustainability and the need for international regulations to prevent the creation of new debris.

Loading next visibility...
Identifier
33741, 1999-025DJE
Orbit
SSO
Country
Flag of CNCN / PRC
Related business
Manufacturer
Unknown
Mission
Spacecraft
Bus & Motor
Unknown
Mass
Unknown
Launch date (UTC)
1999-05-10 (27 years ago)
Launch vehicle
Unknown
Launch site
Taiyaun Space Center, China (TSC)
Object type
Payload
Rocket body
Debris
Shape & HBR
Unknown shape, 0.1 m
Radar Cross Section
Small (<0.1 m²)

Expand to show TLE details & history
Last TLE update: 1 day ago

TLE from 1 day ago
0 FENGYUN 1C DEB
1 33741U 99025DJE 26036.69469967  .00007048  00000-0  36962-2 0  9993
2 33741  98.5649 312.6916 0126935 294.1123  64.6816 14.10430972576377
Epoch: 2026-02-05T16:40Z
TLE epoch observation values (Epoch: 2026-02-05T16:40:22.051Z)
Latitude
0.00003°
Longitude
-73.24353°
Altitude
822.477 km
Speed
7.462 km/s
True Right ascension
20h 50m 45s
True Declination
0° 00' 00"
Sunlit
Object was in daylight at epoch
Visualization orbit readout
Latitude
Unknown
Longitude
Unknown
Altitude
Unknown
Speed
Unknown
Apparent Right ascension
Unknown
Apparent Declination
Unknown
Sunlit
N/A
Visualization observer readout
Local Sidereal Time
05:13:09
Azimuth
Unknown
Elevation
Unknown
Doppler factor
Unknown
Orbital elements
Apogee altitude
946.876 km
Perigee altitude
763.247 km
Semi-major axis
7,233.198 km
Eccentricity
0.01269
Inclination
98.5649°
RAAN
312.6916°
Arg. of periapsis
294.1123°
True anomaly
66.00531°
Mean anomaly
64.6816°
Eccentric anomaly
65.34257°
Mean motion
3.52815 °/min
Orbital period
102.04 mins
BSTAR
0.0036962
Loading maneuver chart data...
Computing Atmospheric mass density...

Documentation

Showing up to 5 results
|